DLH8OE LKPR-EDDM

Flight info

Callsign DLH8OE
Flight time 0h 32m
Altitude 26000
Route DOBEN DCT NIRGO T108 LANDU LANDU2B
Aircraft A20N/M-SDE2E3FGHIRWXY/LB1

Departure

Time 2026-05-06 18:34
Airport Václav Havel Airport Prague (LKPR)

Arrival

Time 2026-05-06 19:06
Airport Munich Airport (EDDM)
Time Latitude Longitude Altitude Speed Heading
2026-05-06 17:58 50.10737 14.26301 1172 ft 0 kts 212°
2026-05-06 18:13 50.10745 14.26310 1172 ft 2 kts 212°
2026-05-06 18:13 50.10759 14.26325 1172 ft 2 kts 233°
2026-05-06 18:13 50.10766 14.26348 1172 ft 2 kts 263°
2026-05-06 18:14 50.10764 14.26374 1173 ft 2 kts 294°
2026-05-06 18:14 50.10760 14.26384 1174 ft 1 kts 308°
2026-05-06 18:14 50.10757 14.26389 1174 ft 0 kts 305°
2026-05-06 18:16 50.10762 14.26380 1173 ft 3 kts 304°
2026-05-06 18:17 50.10788 14.26321 1170 ft 10 kts 305°
2026-05-06 18:17 50.10846 14.26214 1166 ft 15 kts 308°
2026-05-06 18:17 50.10899 14.26102 1164 ft 10 kts 304°
2026-05-06 18:17 50.10931 14.26031 1164 ft 1 kts 305°
2026-05-06 18:18 50.10931 14.26030 1164 ft 0 kts 305°
2026-05-06 18:19 50.10942 14.26008 1164 ft 7 kts 306°
2026-05-06 18:19 50.10955 14.25917 1162 ft 10 kts 242°
2026-05-06 18:20 50.10896 14.25840 1163 ft 10 kts 216°
2026-05-06 18:20 50.10841 14.25779 1165 ft 9 kts 214°
2026-05-06 18:20 50.10792 14.25727 1167 ft 8 kts 214°
2026-05-06 18:20 50.10741 14.25672 1169 ft 8 kts 214°
2026-05-06 18:21 50.10694 14.25621 1171 ft 8 kts 216°
2026-05-06 18:21 50.10679 14.25537 1172 ft 9 kts 287°
2026-05-06 18:21 50.10708 14.25445 1171 ft 5 kts 299°
2026-05-06 18:21 50.10719 14.25412 1170 ft 3 kts 299°
2026-05-06 18:22 50.10735 14.25370 1170 ft 3 kts 299°
2026-05-06 18:22 50.10741 14.25352 1169 ft 0 kts 299°
2026-05-06 18:25 50.10744 14.25345 1169 ft 2 kts 299°
2026-05-06 18:25 50.10756 14.25311 1169 ft 5 kts 298°
2026-05-06 18:26 50.10774 14.25260 1168 ft 2 kts 298°
2026-05-06 18:26 50.10777 14.25252 1168 ft 0 kts 298°
2026-05-06 18:29 50.10780 14.25244 1168 ft 2 kts 298°
2026-05-06 18:29 50.10792 14.25207 1167 ft 5 kts 297°
2026-05-06 18:29 50.10809 14.25134 1166 ft 7 kts 283°
2026-05-06 18:29 50.10812 14.25116 1165 ft 0 kts 279°
2026-05-06 18:31 50.10812 14.25109 1165 ft 3 kts 279°
2026-05-06 18:31 50.10822 14.24951 1163 ft 20 kts 271°
2026-05-06 18:32 50.10806 14.24724 1163 ft 19 kts 254°
2026-05-06 18:32 50.10763 14.24644 1164 ft 9 kts 165°
2026-05-06 18:32 50.10735 14.24683 1165 ft 0 kts 127°
2026-05-06 18:33 50.10722 14.24710 1165 ft 21 kts 127°
2026-05-06 18:33 50.10456 14.25263 1178 ft 101 kts 126°
2026-05-06 18:33 50.09882 14.26440 1211 ft 163 kts 126°
2026-05-06 18:33 50.09167 14.27909 1838 ft 173 kts 126°
2026-05-06 18:34 50.08437 14.29383 2604 ft 177 kts 124°
2026-05-06 18:34 50.07698 14.30907 3307 ft 183 kts 124°
2026-05-06 18:34 50.06909 14.32553 3796 ft 203 kts 124°
2026-05-06 18:34 50.06023 14.34399 4332 ft 223 kts 125°
2026-05-06 18:35 50.05058 14.36397 4892 ft 241 kts 126°
2026-05-06 18:35 50.04018 14.38540 5449 ft 259 kts 126°
2026-05-06 18:35 50.02890 14.40859 6043 ft 276 kts 127°
2026-05-06 18:35 50.01726 14.43252 6849 ft 284 kts 128°
2026-05-06 18:36 50.00652 14.45784 7770 ft 287 kts 113°
2026-05-06 18:36 50.00309 14.48837 8682 ft 292 kts 86°
2026-05-06 18:36 50.00857 14.51829 9530 ft 298 kts 62°
2026-05-06 18:36 50.02198 14.54290 10249 ft 308 kts 37°
2026-05-06 18:37 50.04153 14.55794 10707 ft 324 kts 12°
2026-05-06 18:37 50.05650 14.56088 10971 ft 334 kts 356°
2026-05-06 18:37 50.08674 14.54815 11469 ft 352 kts 327°
2026-05-06 18:37 50.10540 14.52350 11910 ft 360 kts 305°
2026-05-06 18:38 50.11707 14.48929 12633 ft 359 kts 284°
2026-05-06 18:38 50.12116 14.45149 13421 ft 358 kts 267°
2026-05-06 18:38 50.11624 14.41297 14174 ft 359 kts 246°
2026-05-06 18:38 50.10283 14.38017 14919 ft 360 kts 228°
2026-05-06 18:39 50.08584 14.35226 15652 ft 363 kts 226°
2026-05-06 18:39 50.06815 14.32355 16324 ft 367 kts 226°
2026-05-06 18:39 50.05042 14.29463 17001 ft 370 kts 226°
2026-05-06 18:40 50.01492 14.23642 18331 ft 376 kts 226°
2026-05-06 18:40 49.99709 14.20714 18978 ft 378 kts 226°
2026-05-06 18:40 49.97909 14.17754 19638 ft 380 kts 226°
2026-05-06 18:40 49.96109 14.14798 20262 ft 382 kts 226°
2026-05-06 18:41 49.94262 14.11767 20880 ft 385 kts 226°
2026-05-06 18:41 49.92427 14.08759 21478 ft 388 kts 226°
2026-05-06 18:41 49.90573 14.05721 22058 ft 391 kts 226°
2026-05-06 18:41 49.88727 14.02701 22656 ft 393 kts 226°
2026-05-06 18:42 49.86847 13.99628 23210 ft 396 kts 226°
2026-05-06 18:42 49.84943 13.96517 23757 ft 398 kts 226°
2026-05-06 18:42 49.83032 13.93398 24310 ft 401 kts 226°
2026-05-06 18:42 49.81099 13.90249 24886 ft 402 kts 226°
2026-05-06 18:43 49.79159 13.87093 25393 ft 405 kts 226°
2026-05-06 18:43 49.77231 13.83958 25709 ft 407 kts 226°
2026-05-06 18:43 49.75280 13.80793 25729 ft 405 kts 226°
2026-05-06 18:43 49.73348 13.77665 25741 ft 405 kts 226°
2026-05-06 18:44 49.71394 13.74504 25744 ft 405 kts 226°
2026-05-06 18:44 49.69428 13.71326 25739 ft 405 kts 226°
2026-05-06 18:44 49.67486 13.68186 25740 ft 405 kts 226°
2026-05-06 18:44 49.65538 13.65040 25737 ft 405 kts 226°
2026-05-06 18:45 49.63587 13.61898 25740 ft 405 kts 226°
2026-05-06 18:45 49.61634 13.58756 25741 ft 404 kts 226°
2026-05-06 18:45 49.59700 13.55649 25740 ft 404 kts 226°
2026-05-06 18:45 49.58389 13.53542 25739 ft 405 kts 226°
2026-05-06 18:46 49.55798 13.49385 25737 ft 405 kts 226°
2026-05-06 18:46 49.53872 13.46303 25739 ft 405 kts 226°
2026-05-06 18:46 49.51875 13.43242 25737 ft 404 kts 222°
2026-05-06 18:46 49.49753 13.40469 25742 ft 404 kts 220°
2026-05-06 18:47 49.47560 13.37717 25748 ft 405 kts 219°
2026-05-06 18:47 49.45381 13.34983 25732 ft 404 kts 219°
2026-05-06 18:47 49.43227 13.32264 25748 ft 404 kts 219°
2026-05-06 18:47 49.41061 13.29512 25747 ft 405 kts 219°
2026-05-06 18:48 49.38910 13.26775 25740 ft 405 kts 219°
2026-05-06 18:48 49.36734 13.24001 25743 ft 406 kts 219°
2026-05-06 18:48 49.34566 13.21240 25517 ft 405 kts 219°
2026-05-06 18:48 49.32416 13.18499 25244 ft 402 kts 220°
2026-05-06 18:49 49.30296 13.15798 24983 ft 400 kts 220°
2026-05-06 18:49 49.28156 13.13068 24712 ft 399 kts 220°
2026-05-06 18:49 49.26018 13.10351 24437 ft 399 kts 219°
2026-05-06 18:49 49.23908 13.07670 24166 ft 397 kts 219°
2026-05-06 18:50 49.21682 13.04844 23881 ft 396 kts 219°
2026-05-06 18:50 49.19547 13.02136 23618 ft 395 kts 219°
2026-05-06 18:50 49.17433 12.99457 23349 ft 386 kts 219°
2026-05-06 18:50 49.15369 12.96847 23096 ft 380 kts 219°
2026-05-06 18:51 49.13364 12.94316 22847 ft 379 kts 219°
2026-05-06 18:51 49.11331 12.91750 22591 ft 377 kts 219°
2026-05-06 18:51 49.09327 12.89223 22117 ft 375 kts 219°
2026-05-06 18:51 49.07311 12.86687 21601 ft 372 kts 219°
2026-05-06 18:52 49.05343 12.84212 21104 ft 370 kts 219°
2026-05-06 18:52 49.03378 12.81744 20592 ft 367 kts 219°
2026-05-06 18:52 49.01420 12.79286 20089 ft 363 kts 219°
2026-05-06 18:52 48.99486 12.76859 19587 ft 359 kts 219°
2026-05-06 18:53 48.97575 12.74464 19079 ft 355 kts 219°
2026-05-06 18:53 48.95698 12.72149 18585 ft 352 kts 217°
2026-05-06 18:53 48.93724 12.69983 18086 ft 348 kts 215°
2026-05-06 18:53 48.91736 12.67894 17608 ft 345 kts 214°
2026-05-06 18:54 48.89791 12.65866 17106 ft 342 kts 214°
2026-05-06 18:54 48.87825 12.63805 16601 ft 340 kts 214°
2026-05-06 18:54 48.85894 12.61777 16109 ft 337 kts 215°
2026-05-06 18:54 48.83987 12.59780 15616 ft 335 kts 214°
2026-05-06 18:55 48.82062 12.57764 15128 ft 333 kts 214°
2026-05-06 18:55 48.80175 12.55786 14630 ft 331 kts 214°
2026-05-06 18:55 48.78260 12.53771 14118 ft 329 kts 214°
2026-05-06 18:55 48.76387 12.51800 13624 ft 327 kts 215°
2026-05-06 18:56 48.74537 12.49856 13128 ft 325 kts 214°
2026-05-06 18:56 48.72686 12.47917 12635 ft 323 kts 215°
2026-05-06 18:56 48.70866 12.46015 12149 ft 322 kts 215°
2026-05-06 18:56 48.69039 12.44078 11658 ft 320 kts 216°
2026-05-06 18:57 48.67269 12.42060 11162 ft 319 kts 218°
2026-05-06 18:57 48.65514 12.40023 10664 ft 318 kts 218°
2026-05-06 18:57 48.63763 12.37994 10172 ft 316 kts 218°
2026-05-06 18:57 48.62037 12.36002 9683 ft 315 kts 218°
2026-05-06 18:58 48.60309 12.34016 9191 ft 314 kts 217°
2026-05-06 18:58 48.58562 12.32015 8685 ft 313 kts 218°
2026-05-06 18:58 48.56837 12.30041 8188 ft 312 kts 218°
2026-05-06 18:58 48.55115 12.28075 7695 ft 311 kts 219°
2026-05-06 18:59 48.53421 12.26144 7204 ft 310 kts 219°
2026-05-06 18:59 48.51694 12.24172 6694 ft 308 kts 220°
2026-05-06 18:59 48.49992 12.22229 6214 ft 306 kts 220°
2026-05-06 18:59 48.48327 12.20331 5998 ft 296 kts 220°
2026-05-06 19:00 48.46727 12.18512 5786 ft 283 kts 221°
2026-05-06 19:00 48.45169 12.16740 5543 ft 270 kts 221°
2026-05-06 19:00 48.43647 12.15011 5303 ft 257 kts 221°
2026-05-06 19:00 48.42698 12.13933 5152 ft 248 kts 221°
2026-05-06 19:01 48.40955 12.11962 4698 ft 229 kts 222°
2026-05-06 19:01 48.39637 12.10456 4331 ft 215 kts 226°
2026-05-06 19:01 48.38839 12.08723 4064 ft 193 kts 254°
2026-05-06 19:01 48.38543 12.06876 3971 ft 178 kts 265°
2026-05-06 19:02 48.38422 12.05021 4060 ft 179 kts 267°
2026-05-06 19:02 48.38317 12.03163 4004 ft 172 kts 266°
2026-05-06 19:02 48.38203 12.01469 3963 ft 158 kts 266°
2026-05-06 19:02 48.38081 11.99816 3773 ft 157 kts 266°
2026-05-06 19:03 48.37954 11.98188 3555 ft 156 kts 266°
2026-05-06 19:03 48.37825 11.96572 3343 ft 156 kts 265°
2026-05-06 19:03 48.37693 11.94947 3144 ft 156 kts 265°
2026-05-06 19:03 48.37557 11.93295 2927 ft 155 kts 265°
2026-05-06 19:04 48.37423 11.91605 2711 ft 151 kts 264°
2026-05-06 19:04 48.37303 11.90008 2501 ft 136 kts 264°
2026-05-06 19:04 48.37183 11.88505 2266 ft 131 kts 264°
2026-05-06 19:04 48.37083 11.87041 2051 ft 129 kts 264°
2026-05-06 19:05 48.36952 11.85647 1921 ft 129 kts 264°
2026-05-06 19:05 48.36861 11.84231 1777 ft 129 kts 263°
2026-05-06 19:05 48.36748 11.82894 1594 ft 128 kts 264°
2026-05-06 19:05 48.36643 11.81561 1447 ft 119 kts 263°
2026-05-06 19:06 48.36565 11.80543 1450 ft 64 kts 262°
2026-05-06 19:06 48.36527 11.80025 1449 ft 36 kts 262°
2026-05-06 19:06 48.36445 11.79694 1453 ft 31 kts 242°
2026-05-06 19:06 48.36327 11.79449 1457 ft 26 kts 234°
2026-05-06 19:07 48.36227 11.79308 1459 ft 15 kts 187°
2026-05-06 19:07 48.36157 11.79309 1460 ft 14 kts 177°
2026-05-06 19:07 48.36037 11.79327 1464 ft 11 kts 175°
2026-05-06 19:07 48.35976 11.79335 1466 ft 8 kts 174°
2026-05-06 19:08 48.35920 11.79359 1466 ft 8 kts 151°
2026-05-06 19:08 48.35859 11.79386 1466 ft 9 kts 174°
2026-05-06 19:08 48.35789 11.79396 1466 ft 10 kts 176°
2026-05-06 19:08 48.35717 11.79407 1466 ft 10 kts 172°
2026-05-06 19:09 48.35640 11.79422 1466 ft 11 kts 173°
2026-05-06 19:09 48.35585 11.79427 1466 ft 5 kts 195°
2026-05-06 19:09 48.35567 11.79371 1466 ft 7 kts 262°
2026-05-06 19:09 48.35561 11.79295 1466 ft 6 kts 264°
2026-05-06 19:10 48.35559 11.79277 1467 ft 0 kts 263°